Tracking 19246 objects as of 21-Sep-2018
HD Live streaming from Space Station
objects crossing your sky now

FENGYUN 1C DEB

Track FENGYUN 1C DEB now!
10-day predictions


NORAD ID: 38130
Int'l Code: 1999-025EQB
Perigee: 843.9 km
Apogee: 1,180.9 km
Inclination: 98.6 °
Period: 105.2 minutes
Semi major axis: 7383 km
RCS: 0.0021 m2 (small)
Launch date: May 10, 1999
Source: People's Republic of China (PRC)
Launch site: Taiyaun Space Center, China (TSC)

Note: This is SATELLITE DEBRIS
aabbcc
Your satellite tracking list
Your tracking list is empty




NASA's NSSDC Master Catalog

Two Line Element Set (TLE):
1 38130U 99025EQB 18262.00096796  .00000647  00000-0  66592-3 0  9994
2 38130  98.6155 187.9159 0228251  66.6762 295.8226 13.68423223395717
Source of the keplerian elements: AFSPC